Regional Weather Roundup
Issued by NWS Midland/Odessa, TX

Skip options and go directly to product.
Home | Oldest Version | Previous Version | Current Version | All | Text Only | Save Text | Print | Product List | Glossary On

Skip product version selection by date and time.   
710
ASUS44 KMAF 311310
RWRMAF
MIDLAND AREA WEATHER ROUNDUP
NATIONAL WEATHER SERVICE MIDLAND TX
800 AM CDT THU JUL 31 2014

...IN SOUTHWEST TEXAS AND SOUTHEAST NEW MEXICO...

CITY           SKY/WX    TMP DP  RH WIND       PRES   REMARKS
ALPINE         CLOUDY    67  61  81 NE14      30.30R
ANDREWS        CLOUDY    67  59  75 N14       30.19R
ARTESIA        LGT RAIN  64  64 100 N7        30.25S
BIG SPRING     PTSUNNY   72  60  66 N14       30.16R
CARLSBAD       CLOUDY    67  63  87 N14       30.23
DRYDEN           N/A     83  62  49 N10       30.05R
FORT STOCKTON  CLOUDY    71  65  81 N15       30.17R
GUAD PASS      CLOUDY    63  59  87 E28       30.29R
HOBBS          MOCLDY    64  57  77 N13       30.23R
MARFA          MOCLDY    64  61  88 N18       30.25R
MIDLAND AIRPK  CLOUDY    69  61  75 N9        30.17R
MIDLAND INTL   CLOUDY    69  61  75 N14       30.16R
ODESSA         CLOUDY    69  61  75 NE13      30.17R
PECOS          CLOUDY    71  63  75 N9        30.17R
PRESIDIO       FAIR      83  58  42 N10       30.07R
SEMINOLE       CLOUDY    67  58  70 NE9       30.21S
SNYDER         CLOUDY    67  61  79 N14G21    30.14R
WINK           CLOUDY    73  61  65 NE10      30.16R
$$
...OTHER STATIONS IN TEXAS...

CITY           SKY/WX    TMP DP  RH WIND       PRES   REMARKS
ABILENE        CLOUDY    70  64  81 N14       30.08R
AMARILLO       MOSUNNY   59  57  93 N7        30.24R FOG
AUSTIN         PTSUNNY   77  73  87 S7        29.96R
BROWNSVILLE    SUNNY     80  77  90 S8        29.93S
CORPUS CHRISTI PTSUNNY   80  77  90 S9        29.93S
DALLAS FTW     PTSUNNY   78  68  71 S12       29.94R
DEL RIO        MOSUNNY   79  72  79 E9        29.94R
EL PASO        CLOUDY    72  62  71 N13       30.17S
HOUSTON INT    PTSUNNY   79  74  84 CALM      29.98R
LUBBOCK        PTSUNNY   65  58  78 N12       30.20R
SAN ANGELO     CLOUDY    73  64  73 NE12      30.08R
SAN ANTONIO    PTSUNNY   80  73  79 S3        29.98R
WACO           CLOUDY    79  71  76 S10       29.96S
WICHITA FALLS  NOT AVBL
$$
...OTHER LOCATIONS IN NEW MEXICO...

CITY           SKY/WX    TMP DP  RH WIND       PRES   REMARKS
ALAMAGORDO     CLOUDY    66  66 100 CALM      30.23R
ALBUQUERQUE    PTCLDY    64  56  75 E7        30.29R
CANNON AFB     PTSUNNY   61  55  82 N7        30.27S
CLOVIS         NOT AVBL
HOLLOMAN AFB   CLOUDY    68  68 100 SW3       30.20R
ROSWELL        CLOUDY    68  61  78 CALM      30.26R
RUIDOSO        FOG       55  55 100 SE8       30.42  VSB<1/4
SANTA FE       CLOUDY    59  55  87 S8        30.34S
TRUTH OR CONSE CLOUDY    67  59  75 CALM      30.24R
TUCUMCARI      CLOUDY    64  57  78 CALM      30.26S
$$

USA.gov is the U.S. government's official web portal to all federal, state and local government web resources and services.